Orbital Elements at Epoch 2459200.5 (2020-Dec-17.0) TDB
Reference: JPL 17 (heliocentric ecliptic J2000)
Element | Value | Uncertainty (1-sigma) | Units |
e | .01851196066383014 | 4.44e-08 | |
a | 2.910186586759944 | 2.3171e-08 | au |
q | 2.856313327141438 | 1.3611e-07 | au |
i | 3.266143331912403 | 5.258e-06 | deg |
node | 103.1527164241979 | 9.1408e-05 | deg |
peri | 27.30886324019782 | 0.00020188 | deg |
M | 9.100362560437619 | 0.00017804 | deg |
tp | 2459154.660922055291 (2020-Nov-01.16092206) | 0.00089681 | TDB |
period | 1813.341825724111 4.96 | 2.1657e-05 5.929e-08 | d yr |
n | .1985284819955241 | 2.3711e-09 | deg/d |
Q | 2.964059846378451 | 2.36e-08 | au |
|
| | Orbit Determination Parameters
Additional Information
|